Location: Sevilla
(37.3933°N, 5.9839°W)
Time: 05:55:41
(UTC+02:00)

Transit 2A Rocket - Pass Details

Date: 26 June 2024
Orbit: 582 x 910 km, 66.7° (Epoch: 15 July)

Event Time Altitude Azimuth Distance (km) Brightness Sun altitude
Rises 05:31:45 0° 342° (NNW) 3,517 8.8 -15.3°
Reaches altitude 10° 05:34:44 10° 355° (N) 2,593 8.3 -14.9°
Maximum altitude 05:39:40 25° 50° (NE) 1,750 7.8 -14.2°
Drops below altitude 10° 05:44:33 10° 104° (ESE) 2,572 8.2 -13.5°
Sets 05:47:29 0° 117° (ESE) 3,482 8.7 -13.1°
